CUAVA-1 (49275 NORAD) Tracking and Keplerian Element Data

This shows tracking and keplerian element data for the satellite.

Feedback or suggestion? Click here.




ElementValue
Catalog49275
NameCUAVA-1
Epoch Orbit944
Epoch Day339.98368543
Epoch Year2021
RAAN212.2606
Inclination51.6419
Eccentricity0.0002886
Argument of Perigee328.0417
Mean Anonmoly164.2792
Mean Motion15.5208347
Decay Rate0.00017381
L11 49275U 98067SU 21339.98368543 .00017381 00000+0 28969-3 0 9997
L22 49275 51.6419 212.2606 0002886 328.0417 164.2792 15.52083470 9446

Live tracking and technical data element details for CUAVA-1 (NORAD 49275). CUAVA-1 can be tracked NOW for your location showing map with azimuth and elevation plus other details from your city location.

Track the satellite on the map from your city or location and see movement details for azimuth, elevation, latitude, longitude, range, height, and movement on the map or in text.







IsCatalogInMostPopularTable: catalog: 49275, numindb: 9
Update: records affected: 1



GetName: 49275 CUAVA-1

Hit Count: updated at: Mon, 06 Dec 2021 15:27:14 GMT